YAOGAN-30 M (43172 NORAD) Tracking and Keplerian Element Data

This shows tracking and keplerian element data for the satellite.

Feedback or suggestion? Click here.




ElementValue
Catalog43172
NameYAOGAN-30 M
Epoch Orbit434
Epoch Day54.50458744
Epoch Year2018
RAAN9.9446
Inclination34.9999
Eccentricity0.0003558
Argument of Perigee164.0932
Mean Anonmoly195.989
Mean Motion14.89469154
Decay Rate1.85E-06
L11 43172U 18011D 18054.50458744 .00000185 00000-0 21850-4 0 9997
L22 43172 34.9999 9.9446 0003558 164.0932 195.9890 14.89469154 4343

Live tracking and technical data element details for YAOGAN-30 M (NORAD 43172). YAOGAN-30 M can be tracked NOW for your location showing map with azimuth and elevation plus other details from your city location.

Track the satellite on the map from your city or location and see movement details for azimuth, elevation, latitude, longitude, range, height, and movement on the map or in text.







IsCatalogInMostPopularTable: catalog: 43172, numindb: 110
Update: records affected: 1



GetName: 43172 YAOGAN-30 M

Hit Count: updated at: Fri, 16 Nov 2018 12:37:50 GMT